THOR ABLESTAR DEB, 172

Orbit data source: Space-Track

THOR ABLESTAR DEB, 172 is space debris in LEO originally from a launch on Thu, 29 Jun 1961 UTC launched from the Air Force Eastern Test Range (AFETR). Debris objects in space refer to the collection of defunct objects orbiting the Earth. Examples of debris include non-operational satellites, rocket bodies, and fragments generated from explosions, collisions, or faulty payload assembly.

Loading next visibility...
Identifier
172, 1961-015AY
Orbit
LEO
Country
Flag of USUS
Related business
Manufacturer
Unknown
Mission
Spacecraft
Bus & Motor
Unknown
Mass
Unknown
Launch date (UTC)
1961-06-29 (65 years ago)
Launch vehicle
Unknown
Launch site
Air Force Eastern Test Range (AFETR)
Object type
Payload
Rocket body
Debris
Shape & HBR
Unknown shape, 0.2 m
Radar Cross Section
Medium (>0.1 m² and <1 m²)

Expand to show TLE details & history
Last TLE update: 15 hours ago

TLE from 15 hours ago
0 THOR ABLESTAR DEB
1   172U 61015AY  26253.31119184  .00000421  00000-0  62689-3 0  9990
2   172  67.0696 333.2645 0130732   1.6512 358.4957 13.59316716216689
Epoch: 2026-09-10T07:28Z
TLE epoch observation values (Epoch: 2026-09-10T07:28:06.974Z)
Latitude
-0.00009°
Longitude
-128.11532°
Altitude
943.31 km
Speed
7.429 km/s
True Right ascension
22h 13m 03s
True Declination
0° 00' 00"
Sunlit
Object was in full shadow at epoch
Visualization orbit readout
Latitude
Unknown
Longitude
Unknown
Altitude
Unknown
Speed
Unknown
Apparent Right ascension
Unknown
Apparent Declination
Unknown
Sunlit
N/A
Visualization observer readout
Local Sidereal Time
15:16:29
Azimuth
Unknown
Elevation
Unknown
Doppler factor
Unknown
Orbital elements
Apogee altitude
1,133.498 km
Perigee altitude
939.63 km
Semi-major axis
7,414.701 km
Eccentricity
0.01307
Inclination
67.0696°
RAAN
333.2645°
Arg. of periapsis
1.6512°
True anomaly
358.45572°
Mean anomaly
358.4957°
Eccentric anomaly
358.47578°
Mean motion
3.3994 °/min
Orbital period
105.9 mins
BSTAR
0.00062689
Loading maneuver chart data...
Computing Atmospheric mass density...

Documentation

Showing up to 5 results
|